Location: Mountain View
(37.3861°N, 122.0839°W)
Time: 00:54:06
(UTC-07:00)

ISS - Visible Passes

Search period start: 24 May 2017 00:00
Search period end: 03 June 2017 00:00
Orbit: 402 x 409 km, 51.6° (Epoch: 24 May)

Date Brightness Start Highest point End Pass type
(mag) Time Alt. Az. Time Alt. Az. Time Alt. Az.
24 May -1.3 03:53:58 10° NNW 03:56:43 24° NNE 03:59:28 10° E visible
24 May -2.3 22:08:36 10° WSW 22:11:43 38° NW 22:14:50 10° NE visible
25 May -0.7 03:02:18 10° NNW 03:04:28 16° NNE 03:06:36 10° ENE visible
25 May -4.0 04:38:01 10° NW 04:41:17 74° SW 04:44:31 10° SE visible
25 May -3.6 21:16:19 10° SW 21:19:36 76° NW 21:22:54 10° NE visible
25 May -0.4 22:54:48 10° NW 22:56:34 14° NNW 22:58:19 10° N visible
26 May -0.3 02:10:54 10° N 02:12:06 12° NNE 02:13:19 10° NE visible
26 May -3.1 03:45:59 10° NW 03:49:12 53° NE 03:52:24 10° ESE visible
26 May -0.9 22:01:44 10° WNW 22:04:14 20° NNW 22:06:44 10° NNE visible
27 May -1.2 02:54:06 10° NNW 03:01:08 - ESE 02:55:16 18° NNW visible
27 May -2.4 04:34:31 21° SSW 04:34:31 21° SSW 04:36:12 10° S visible
27 May -1.7 21:09:00 10° W 21:11:58 31° NNW 21:14:58 10° NNE visible
28 May -0.5 02:02:21 10° NNW 02:02:36 11° NNW 02:02:36 11° NNW visible
28 May -0.4 21:55:29 10° NW 21:56:51 12° NNW 21:58:13 10° N visible
29 May -0.3 01:10:46 10° N 01:11:25 12° N 01:11:25 12° N visible
29 May -0.7 21:02:12 10° WNW 21:04:28 17° NNW 21:06:43 10° NNE visible
31 May -0.3 01:02:18 10° NNW 01:02:29 11° NNW 01:02:29 11° NNW visible
31 May -0.4 20:56:10 10° NNW 20:57:02 11° NNW 20:57:55 10° N visible
01 Jun -0.6 00:10:36 10° NNW 00:11:51 14° N 00:11:51 14° N visible
01 Jun -0.7 23:19:15 10° N 23:20:06 11° NNE 23:20:57 10° NNE visible
